Location: ??
(35.5090°N, 139.6783°E)
Time: 01:55:18
(UTC+00:00)

Cosmos 1725 Rocket - Pass Details

Date: 08 November 2025
Orbit: 962 x 989 km, 82.9° (Epoch: 09 December)

Event Time Altitude Azimuth Distance (km) Brightness Sun altitude
Rises 07:56:37 0° 170° (S) 3,645 7.1 -4.0°
Reaches altitude 10° 07:59:10 10° 165° (SSE) 2,706 6.4 -4.5°
Maximum altitude 08:05:08 51° 91° (E) 1,206 4.2 -5.7°
Drops below altitude 10° 08:11:10 10° 17° (NNE) 2,740 6.0 -6.9°
Sets 08:13:45 0° 13° (NNE) 3,695 6.7 -7.4°
